Wind_Speed
35 38 38 46 82 85 84 82 75 69 72 73 50 54 62 64 63 57 61 57 53 51 48 44 44 39 43 41 37 34 31 30 32 26 22 17 14 16 14 11 10 9 10 13 15
33 39 40 41 70 85 86 83 78 67 71 62 57 52 42 64 55 68 64 62 56 56 52 45 46 41 47 44 40 38 40 36 29 25 23 19 19 16 14 14 12 10 11 11 14
30 36 32 33 60 83 87 83 71 79 54 62 61 64 46 59 67 53 52 54 67 63 47 44 52 46 43 46 44 41 37 33 23 25 23 19 18 17 15 14 13 13 12 12 12
27 28 23 28 35 67 85 91 90 68 81 46 52 47 51 49 70 68 51 57 55 49 38 52 41 45 41 43 48 42 39 34 27 27 24 22 22 19 17 17 17 15 13 12 12
24 21 29 38 37 40 54 90 85 74 62 75 52 55 56 51 61 72 56 67 55 50 53 51 47 45 44 41 41 38 37 33 29 29 25 25 23 21 19 18 19 16 15 14 14
21 19 32 45 47 35 31 78 88 84 70 78 57 53 50 52 55 64 61 60 54 49 59 55 54 46 43 42 42 38 37 35 33 31 29 26 24 22 19 20 19 19 18 17 16
20 20 29 40 52 36 40 57 91 88 75 66 70 62 44 67 61 63 64 55 53 67 65 61 58 51 46 45 43 41 39 38 37 33 30 27 28 24 23 22 21 22 20 19 18
19 20 26 45 46 36 32 43 72 86 87 66 65 52 48 46 49 54 64 50 50 55 60 68 54 53 49 47 46 46 45 41 38 34 32 31 28 27 24 23 24 24 22 21 20
17 20 24 52 36 39 31 27 48 77 78 77 61 54 55 49 52 51 58 59 46 58 66 60 58 55 52 48 46 45 45 45 40 35 30 30 29 26 26 26 26 25 24 23 23
17 22 26 43 33 40 33 22 27 44 64 81 68 47 55 58 57 47 48 54 61 56 56 68 60 56 52 49 48 46 42 38 32 30 29 28 26 27 26 26 25 23 23 24 24
17 21 28 32 36 32 26 32 30 35 56 81 69 48 53 48 51 45 50 47 50 49 60 63 52 50 52 45 44 42 38 38 38 34 31 29 30 29 27 25 24 24 24 25 24
16 20 29 40 41 35 37 35 35 34 47 61 62 65 58 45 39 56 54 52 52 51 55 60 53 46 44 44 46 43 43 43 39 38 37 33 29 28 27 25 26 27 27 29 28
18 23 33 48 47 38 44 34 35 34 38 55 57 59 68 58 50 53 41 52 50 49 51 51 49 47 45 47 49 48 46 43 39 36 35 36 37 36 35 35 36 36 36 38 39
20 23 34 43 45 41 47 32 39 34 32 47 51 52 58 48 58 46 48 49 49 51 53 51 49 47 46 45 44 44 45 46 46 46 44 43 41 39 38 35 34 33 35 37 38
21 23 31 38 44 40 32 34 31 32 31 34 40 48 57 59 54 47 46 55 54 54 56 53 48 50 48 44 46 48 47 46 45 44 45 45 45 38 38 36 35 35 35 36 36
22 22 28 35 46 41 44 32 37 35 41 35 38 41 43 55 55 45 43 54 40 55 53 47 47 53 52 51 51 50 49 49 47 47 48 45 44 41 38 35 35 37 35 36 35
23 21 26 33 45 45 37 36 35 41 41 35 38 38 39 43 51 55 43 51 38 41 54 51 50 55 56 56 55 53 53 52 51 51 51 46 45 41 37 34 34 36 36 36 34
23 20 24 32 41 38 43 40 36 46 42 36 35 39 38 36 38 38 44 49 49 42 47 56 56 51 52 55 55 56 56 55 54 52 50 47 46 43 37 33 30 31 33 35 36
24 20 21 29 37 34 39 33 37 43 45 36 37 39 40 39 38 39 39 51 47 45 47 44 56 54 52 51 56 57 57 55 54 54 53 51 46 42 38 33 33 33 33 36 37
27 23 19 26 35 32 30 30 33 32 38 38 34 38 40 39 36 34 34 36 58 44 32 44 45 55 52 51 51 51 52 54 55 55 53 50 47 43 39 37 37 36 36 37 39
30 27 21 21 29 32 27 30 32 35 33 31 37 38 36 34 33 33 34 34 39 40 47 40 48 52 51 48 46 46 49 52 52 56 56 53 47 44 44 42 42 41 41 42 42
27 29 24 21 21 30 27 31 37 40 32 32 32 31 35 37 35 36 34 34 39 39 38 41 50 44 55 51 48 45 41 39 45 50 50 51 50 49 48 47 44 44 44 46 47
17 31 29 24 20 23 36 34 35 41 43 36 35 35 32 34 38 36 33 32 34 40 42 41 41 43 45 52 55 54 52 49 46 44 46 48 49 51 51 50 50 50 50 50 52
12 23 31 27 24 19 27 33 33 40 47 42 38 40 40 38 36 37 35 32 31 36 40 42 42 42 41 38 39 46 50 52 52 51 50 50 52 53 52 53 53 53 53 52 47
8 14 28 31 28 24 20 27 31 33 44 47 42 40 40 43 42 40 39 37 34 31 35 36 38 43 45 47 46 43 42 45 51 52 57 55 58 56 57 57 56 57 50 45 43
8 12 17 28 31 29 25 25 31 35 39 44 44 46 39 34 44 44 42 42 41 37 35 34 33 37 40 43 45 47 46 45 45 48 51 52 53 59 57 54 51 49 47 45 40
4 8 14 20 28 32 31 27 25 26 40 37 41 45 38 37 39 47 45 43 43 41 39 36 33 32 34 35 37 41 44 46 48 49 47 44 36 39 44 46 43 43 41 37 34
Wind_Direction
267 261 259 232 214 211 211 212 214 218 227 229 233 214 215 220 221 212 212 212 209 206 208 207 214 210 212 206 205 206 212 222 220 211 211 208 197 192 178 196 208 204 205 202 205
269 263 263 233 216 208 209 208 211 218 220 218 236 212 220 210 204 210 208 211 206 207 212 207 213 220 212 203 206 208 210 222 232 211 214 205 201 203 188 193 207 209 210 208 209
269 279 259 224 215 207 206 207 202 203 206 217 224 229 219 209 202 203 219 213 213 218 209 204 210 217 199 208 210 207 212 221 212 214 210 209 201 206 201 197 211 205 214 208 208
267 282 218 204 218 213 208 206 204 201 206 204 207 219 229 202 203 199 197 205 205 193 202 201 208 209 209 208 212 211 212 217 202 208 210 214 209 206 203 199 211 207 212 217 214
263 265 191 186 171 212 219 209 207 198 205 212 218 232 235 219 209 207 207 204 192 203 207 211 213 211 201 206 210 201 211 218 206 206 205 209 215 208 205 205 212 212 212 218 222
254 247 202 184 185 197 204 216 205 204 204 209 210 215 220 216 207 210 207 208 206 195 214 214 212 217 210 208 206 202 210 216 214 213 211 211 220 215 209 215 218 220 218 219 225
244 233 214 186 187 193 193 216 210 208 216 209 210 220 217 220 217 213 209 206 211 213 214 217 218 218 211 208 207 203 207 216 220 215 216 214 220 222 216 217 222 224 228 229 231
238 227 210 188 191 203 209 215 216 214 215 207 205 198 204 197 208 210 212 205 206 216 205 206 204 208 204 207 206 208 208 212 215 211 218 219 218 226 226 226 229 233 233 238 241
222 224 205 205 181 184 190 205 219 218 219 208 197 191 191 200 200 195 202 203 204 201 209 206 210 207 211 207 206 209 212 215 211 214 221 219 219 229 234 237 237 237 240 241 244
208 208 200 200 177 175 172 175 199 218 225 219 194 189 187 189 203 206 198 202 209 193 192 204 206 211 211 207 208 209 207 213 218 222 227 227 224 230 233 237 240 246 244 244 243
202 201 190 182 166 179 183 190 204 206 222 220 205 191 194 195 192 204 213 229 228 222 208 205 202 211 212 209 201 206 212 216 220 222 226 223 221 225 231 238 243 244 249 254 261
197 199 190 174 164 186 188 180 188 200 217 219 225 210 206 184 188 208 215 221 225 222 218 216 209 197 203 200 203 203 207 212 213 216 221 222 222 224 229 234 243 251 258 263 263
194 196 191 177 167 177 182 180 183 190 194 210 222 223 221 212 217 208 216 215 214 221 218 218 216 210 207 201 202 206 212 217 218 220 224 228 230 236 240 244 250 255 261 267 269
189 194 191 186 169 169 181 180 179 184 201 221 228 231 232 231 233 204 211 210 220 219 216 215 210 209 207 208 209 211 213 217 218 220 225 227 230 235 244 250 253 258 265 270 275
188 194 187 187 180 177 175 183 179 178 192 204 211 226 229 232 227 214 219 209 214 217 214 213 218 214 212 215 214 216 219 221 221 224 225 226 233 228 239 247 252 255 261 263 271
188 186 189 179 189 175 191 177 187 194 199 197 198 215 228 235 233 216 202 205 204 212 212 225 228 220 213 213 217 220 223 226 227 230 232 231 237 236 237 243 251 255 257 260 263
190 179 188 179 173 175 187 198 201 201 195 197 195 201 218 231 231 233 229 211 211 214 213 221 225 224 224 217 220 222 223 226 229 230 232 236 240 245 244 247 249 249 254 259 262
189 186 183 180 179 179 183 188 197 199 200 201 191 195 200 210 217 223 231 210 218 217 216 219 217 221 223 226 228 229 226 231 234 236 242 243 242 246 249 252 246 249 254 257 259
193 191 183 181 180 181 190 189 196 199 198 197 198 200 199 205 209 214 219 225 220 219 220 220 222 227 224 227 228 227 230 234 237 240 241 244 244 246 249 247 251 250 252 254 257
191 197 189 185 175 170 187 191 199 195 200 203 202 198 201 203 203 208 218 227 228 231 215 220 223 226 225 223 226 229 234 236 237 239 243 245 245 250 249 257 258 257 257 257 260
192 197 196 192 185 175 171 181 188 193 183 191 205 203 199 205 206 208 212 217 223 228 231 221 224 227 222 222 225 230 234 236 237 242 244 248 250 250 256 261 260 261 261 261 263
197 196 200 197 192 189 171 178 184 191 184 189 192 193 199 204 205 207 204 204 201 212 216 227 232 229 227 230 232 235 237 235 235 239 241 243 246 252 258 261 262 264 267 268 270
201 201 202 199 201 206 181 173 181 187 187 180 187 197 192 195 199 204 205 208 205 205 209 212 216 225 231 229 231 233 236 239 237 236 239 241 246 254 261 261 266 267 270 270 274
204 204 205 202 208 211 212 197 188 193 192 190 187 194 199 200 199 201 206 203 204 207 210 211 215 219 228 237 240 241 245 243 242 244 247 250 253 256 259 263 266 268 271 275 278
213 204 204 208 207 210 219 211 189 196 198 195 191 195 194 200 205 204 207 208 207 214 213 217 218 218 219 224 230 235 234 238 242 247 250 253 253 255 256 260 262 267 273 275 274
217 207 211 209 211 212 214 228 210 200 196 202 208 210 201 197 201 203 206 210 213 217 217 215 218 219 223 228 229 229 231 237 241 243 248 250 252 254 258 265 266 266 267 267 266
252 234 219 215 213 215 215 219 230 218 192 196 201 210 206 203 200 206 208 207 215 219 219 222 226 225 224 226 230 231 231 234 234 235 239 245 253 255 253 256 259 260 261 261 267
Height
5593 5592 5593 5596 5606 5624 5642 5658 5672 5683 5693 5701 5710 5718 5725 5736 5749 5754 5767 5777 5784 5790 5796 5803 5808 5813 5818 5823 5828 5832 5835 5837 5840 5846 5847 5851 5854 5853 5857 5859 5861 5862 5863 5865 5867
5584 5581 5581 5583 5594 5610 5625 5643 5660 5675 5684 5693 5700 5708 5715 5726 5737 5747 5758 5767 5774 5781 5789 5796 5803 5806 5814 5818 5823 5826 5832 5834 5840 5842 5844 5848 5850 5853 5857 5859 5859 5862 5863 5863 5865
5575 5572 5570 5574 5584 5601 5615 5634 5649 5662 5676 5687 5691 5698 5708 5718 5731 5739 5747 5755 5765 5772 5778 5788 5793 5801 5807 5813 5818 5823 5827 5831 5836 5838 5840 5845 5848 5850 5854 5857 5857 5860 5862 5863 5863
5567 5565 5566 5571 5582 5594 5605 5618 5635 5650 5664 5677 5684 5689 5700 5712 5723 5732 5742 5752 5756 5762 5772 5783 5790 5795 5802 5808 5813 5819 5823 5826 5832 5834 5838 5842 5844 5848 5852 5855 5855 5857 5859 5861 5862
5560 5560 5563 5568 5578 5590 5601 5611 5627 5642 5659 5670 5678 5686 5696 5702 5711 5722 5732 5742 5745 5755 5767 5776 5784 5791 5796 5803 5808 5813 5818 5822 5828 5831 5834 5837 5840 5844 5848 5851 5852 5854 5857 5858 5860
5554 5554 5558 5564 5575 5587 5598 5604 5618 5634 5647 5660 5671 5683 5688 5698 5704 5714 5723 5735 5743 5750 5759 5768 5777 5784 5790 5798 5803 5810 5813 5817 5823 5826 5830 5834 5835 5840 5845 5847 5849 5851 5854 5855 5857
5548 5550 5551 5560 5571 5578 5589 5599 5613 5632 5641 5653 5665 5678 5680 5688 5697 5706 5716 5726 5735 5745 5754 5762 5768 5778 5786 5792 5799 5804 5808 5812 5817 5821 5825 5830 5831 5836 5840 5843 5846 5848 5850 5852 5853
5541 5544 5548 5557 5566 5578 5588 5597 5606 5621 5630 5645 5656 5666 5675 5682 5690 5699 5709 5718 5728 5736 5745 5753 5760 5771 5778 5786 5792 5797 5802 5806 5810 5817 5821 5825 5830 5831 5836 5839 5841 5844 5846 5847 5849
5537 5539 5543 5551 5565 5575 5587 5593 5601 5613 5626 5634 5648 5657 5668 5679 5686 5692 5700 5711 5722 5732 5739 5743 5753 5763 5771 5778 5786 5790 5797 5802 5805 5811 5816 5820 5825 5827 5830 5833 5835 5839 5842 5843 5844
5535 5538 5539 5549 5562 5574 5584 5593 5601 5607 5616 5623 5636 5652 5665 5674 5681 5687 5693 5705 5716 5724 5734 5735 5747 5756 5765 5771 5777 5786 5792 5799 5803 5809 5813 5817 5821 5822 5825 5827 5830 5832 5835 5836 5839
5531 5534 5538 5546 5559 5570 5580 5589 5598 5604 5610 5623 5642 5650 5662 5667 5672 5680 5688 5697 5707 5717 5727 5733 5742 5750 5760 5769 5778 5785 5790 5795 5800 5804 5808 5812 5814 5817 5819 5823 5825 5827 5828 5830 5832
5528 5531 5536 5545 5555 5568 5576 5584 5592 5602 5609 5619 5628 5639 5647 5658 5665 5674 5683 5692 5699 5708 5718 5728 5739 5750 5755 5761 5769 5776 5782 5788 5792 5797 5802 5806 5810 5813 5815 5819 5820 5821 5823 5824 5827
5527 5530 5534 5543 5554 5564 5573 5582 5589 5598 5605 5616 5624 5634 5644 5654 5662 5672 5679 5685 5694 5702 5712 5723 5733 5735 5743 5752 5760 5767 5775 5782 5788 5792 5796 5800 5803 5807 5810 5813 5816 5818 5819 5818 5820
5527 5529 5533 5539 5552 5561 5570 5579 5587 5596 5603 5613 5620 5628 5638 5647 5657 5667 5675 5681 5687 5696 5705 5714 5722 5729 5737 5745 5754 5762 5768 5773 5779 5783 5787 5792 5796 5799 5803 5807 5810 5812 5813 5812 5812
5526 5528 5532 5538 5546 5558 5566 5575 5585 5592 5598 5606 5612 5620 5629 5638 5654 5662 5668 5675 5684 5690 5700 5707 5713 5721 5730 5740 5747 5755 5761 5765 5770 5776 5780 5783 5786 5795 5795 5800 5804 5806 5807 5807 5806
5526 5528 5531 5537 5545 5556 5565 5573 5583 5590 5592 5599 5606 5614 5623 5633 5645 5654 5662 5670 5677 5683 5692 5699 5708 5713 5723 5732 5739 5747 5754 5758 5763 5767 5770 5776 5779 5784 5790 5794 5797 5798 5798 5800 5799
5525 5530 5533 5535 5544 5553 5562 5570 5579 5580 5586 5595 5604 5611 5619 5628 5637 5645 5658 5666 5672 5678 5685 5693 5700 5706 5714 5722 5728 5737 5745 5749 5754 5757 5760 5768 5771 5775 5782 5785 5790 5790 5790 5792 5793
5525 5530 5533 5536 5543 5550 5557 5566 5572 5576 5584 5593 5602 5607 5614 5622 5629 5638 5650 5659 5667 5673 5681 5687 5694 5700 5707 5714 5723 5728 5736 5742 5745 5749 5755 5759 5762 5767 5773 5777 5780 5781 5783 5784 5784
5524 5529 5533 5537 5542 5548 5557 5563 5567 5574 5583 5589 5596 5603 5609 5616 5626 5632 5643 5654 5660 5669 5677 5682 5688 5693 5702 5709 5716 5721 5726 5734 5738 5741 5744 5748 5753 5759 5762 5767 5770 5772 5774 5775 5776
5523 5528 5533 5538 5542 5547 5550 5557 5565 5573 5580 5586 5592 5599 5606 5612 5619 5627 5633 5643 5653 5662 5668 5675 5682 5689 5695 5701 5706 5712 5720 5725 5727 5730 5734 5738 5743 5749 5753 5758 5760 5762 5764 5766 5767
5522 5528 5533 5538 5541 5544 5549 5554 5563 5572 5578 5584 5590 5597 5602 5609 5615 5623 5631 5637 5643 5651 5661 5667 5675 5682 5687 5691 5697 5703 5708 5713 5719 5723 5726 5731 5736 5741 5743 5746 5749 5751 5754 5756 5757
5521 5527 5532 5537 5541 5542 5548 5554 5560 5567 5574 5579 5585 5592 5597 5604 5611 5619 5625 5630 5635 5644 5650 5656 5665 5672 5680 5685 5690 5694 5700 5703 5707 5713 5718 5722 5727 5730 5734 5736 5738 5741 5743 5744 5745
5520 5525 5531 5536 5540 5541 5545 5550 5556 5563 5568 5574 5580 5584 5592 5599 5606 5613 5618 5623 5628 5636 5643 5648 5652 5661 5667 5673 5677 5683 5689 5693 5699 5704 5709 5715 5720 5721 5723 5726 5728 5729 5730 5731 5733
5520 5523 5529 5534 5538 5541 5542 5546 5551 5557 5563 5570 5576 5580 5587 5593 5600 5607 5612 5618 5624 5629 5635 5639 5646 5654 5663 5670 5673 5677 5683 5686 5690 5696 5701 5707 5711 5713 5715 5715 5716 5717 5718 5719 5721
5518 5522 5525 5530 5534 5538 5541 5543 5546 5552 5558 5565 5571 5577 5581 5587 5596 5601 5607 5613 5618 5624 5628 5634 5639 5644 5650 5656 5661 5666 5669 5674 5680 5687 5690 5701 5700 5703 5703 5703 5705 5705 5709 5711 5711
5516 5518 5521 5526 5531 5535 5539 5540 5542 5549 5555 5560 5565 5571 5575 5582 5589 5594 5600 5607 5614 5620 5623 5628 5632 5637 5640 5645 5650 5654 5660 5666 5671 5673 5678 5683 5690 5691 5693 5696 5696 5696 5698 5700 5701
5516 5517 5518 5521 5526 5531 5534 5538 5540 5543 5548 5553 5559 5565 5568 5576 5580 5586 5593 5599 5608 5613 5617 5622 5626 5630 5634 5638 5641 5647 5654 5657 5660 5663 5669 5674 5684 5682 5681 5682 5684 5685 5686 5689 5691